星链-32577 (STARLINK-32577)

导读

STARLINK-32577是美国SpaceX公司星链(Starlink)星座中的一颗互联网卫星,于2024年11月21日由猎鹰9号火箭从卡纳维拉尔角太空军基地发射,属于星链6-66任务批次。 作为低轨宽带卫星,它运行在近地轨道,旨在为全球,尤其是偏远、网络覆盖不足的地区提供低延迟、高速的卫星互联网服务,进一步扩充了星链星座的规模,助力SpaceX实现全球全域互联的目标。

基本信息
目录编号:
62044
目录名称:
STARLINK-32577
国际标识:
2024-216N
轨道中心:
EARTH
卫星名称:
星链-32577
卫星全名:
星链-32577 (STARLINK-32577)
卫星状态:
在轨 (已飞行573 天)
发射日期:
2024-11-21 UTC
国别 :
美国 (US)
星等 :
--
轨道信息
数据来源 国际轨道数据
星历时间: 2026-06-17T08:16:40+0800
20小时前
查看轨道信息
半长轴: 6861.156km
偏心率: 0.0001645
轨道倾角: 43.003°
近地点辐角 264.313°
升交点赤经 62.503°
平近点角 95.754°
近地点: 481.89km
远地点: 484.148km
周期: 94.266分钟
每日圈数: 15.275902
详细信息
固有亮度:
5
最大亮度:
2.5
卫星平台:
Starlink V1.0
覆盖范围:
全球
运营商:
太空探索技术公司
运营商所在国:
美国
制造商(研发单位):
太空探索技术公司
制造商所在国:
美国
使用方式:
暂无
卫星简介
Starlink 计划是 SpaceX 推出的全球卫星互联网项目,通过发射低轨道卫星,为全球尤其是偏远地区提供高速、低延迟的互联网服务。自 2019 年起,Starlink 已部署数千颗卫星,旨在缩小全球数字鸿沟,推动互联网普及。该项目还为军事、航空等行业提供通信支持,带来广泛经济效益。
2D轨道图
3D轨道图
轨道高度分析图
轨道倾角分析图
轨道综合分析图
查看轨道综合分析图